{"data":{"norad_id":47857,"epoch":"2026-09-20T21:21:09.874368Z","epoch_age_seconds":51219,"freshness":"FRESH","line1":"1 47857U 21020D   26263.88969762 -.00000006  00000+0  12910-3 0  9992","line2":"2 47857  63.4082  12.1375 0182972   0.7307 359.3953 13.45452358271334","mean_motion":13.45452358,"eccentricity":0.0182972,"inclination_deg":63.4082,"raan_deg":12.1375,"arg_perigee_deg":0.7307,"mean_anomaly_deg":359.3953,"bstar":0.0001291,"rev_number":27133,"period_min":107.02720103301,"perigee_km":952.40897016241,"apogee_km":1225.6657352959,"semimajor_km":7467.1743527292,"source":"CELESTRAK","updated_at":"2026-09-21T09:00:07.609169Z"}}